Content
SEND FEEDBACK

Daily
Averages
Monthly
Summary
United States of America

GREENFIELD, MASSACHUSETTS


Home > North America > United States > Massachusetts
Elevation: 190 feet     Latitude: 42 37N     Longitude: 072 33W

WEATHER
 
SELECT A DAY
Number of Records: 217,680;   Date Range: 7/1/96 - 12/19/14
 
SHARE

PRINT THIS DATA

[ ← Previous Day ]
WEATHER ALMANAC - MARCH 21, 2014
[ Next Day → ]
[ °C ]   °F
Weather ElementAverageHighLow
Temperature33.9 °F37.9 °F (1:52 pm)28.9 °F (11:52 pm)
Dewpoint19.5 °F23 °F (1:52 am)18 °F (11:52 am)
Humidity55.9 %64 % (1:52 am)45 % (1:52 pm)
Barometer29.90 in30.04 in (10:52 pm)29.78 in (1:52 am)
Wind Speed11 mph18.4 mph (7:52 am)
Wind Gust32.2 mph (1:52 pm)
Weather ElementAverage
Visibility10 mi
Wind DirectionW (269.6 °)

Weather ElementTotal
Precipitation---
Heating Degree Days31.6 (Base 65)
Averaged from 23 records on March 21, 2014
WEATHER CONDITIONS BREAKOUT
WIND DIRECTION BREAKOUT
WEATHER BY HOUR - MARCH 21, 2014
[ °C ]   °F
Local TimeTemperatureDewpointHumidityBarometerVisibilityWind DirectionWind SpeedGust SpeedPrecipitationEventsConditions
1:52 AM34.0 °F23.0 °F64 %29.78 in10.0 miWest (260°)8.1 mphOvercast
2:52 AM35.1 °F19.9 °F54 %29.78 in10.0 miWest (270°)11.5 mph26.5 mphOvercast
3:52 AM35.1 °F19.9 °F54 %29.78 in10.0 miWest (280°)15.0 mph20.7 mphOvercast
4:52 AM34.0 °F19.9 °F56 %29.79 in10.0 miWest (280°)9.2 mphOvercast
5:52 AM34.0 °F19.9 °F56 %29.81 in10.0 miWest (280°)8.1 mphOvercast
6:52 AM33.1 °F21.0 °F61 %29.82 in10.0 miWSW (250°)11.5 mphOvercast
7:52 AM33.1 °F21.0 °F61 %29.83 in10.0 miWest (280°)18.4 mph26.5 mphOvercast
8:52 AM34.0 °F19.9 °F56 %29.85 in10.0 miWest (260°)15.0 mph23.0 mphOvercast
9:52 AM34.0 °F19.9 °F56 %29.87 in10.0 miWNW (300°)12.7 mph23.0 mphOvercast
10:52 AM34.0 °F19.9 °F56 %29.88 in10.0 miWNW (300°)11.5 mph20.7 mphOvercast
11:52 AM35.1 °F18.0 °F50 %29.89 in10.0 miWNW (290°)13.8 mph24.2 mphOvercast
12:52 PM36.0 °F19.0 °F50 %29.90 in10.0 miWest (280°)10.4 mph25.3 mphOvercast
1:52 PM37.9 °F18.0 °F45 %29.89 in10.0 miWNW (290°)16.1 mph32.2 mphMostly Cloudy
2:52 PM37.0 °F19.9 °F50 %29.90 in10.0 miWest (270°)12.7 mph32.2 mphOvercast
3:52 PM36.0 °F19.9 °F52 %29.91 in10.0 miWest (280°)17.3 mph24.2 mphOvercast
4:52 PM36.0 °F19.0 °F50 %29.93 in10.0 miWest (280°)12.7 mph27.6 mphOvercast
5:52 PM35.1 °F19.9 °F54 %29.96 in10.0 miWNW (300°)10.4 mph26.5 mphOvercast
6:52 PM34.0 °F19.0 °F54 %29.99 in10.0 miWNW (290°)9.2 mphPartly Cloudy
7:52 PM32.0 °F19.0 °F59 %30.01 in10.0 miWest (270°)8.1 mphClear
8:52 PM30.9 °F19.0 °F61 %30.02 in10.0 miVariable4.6 mphClear
9:52 PM30.0 °F18.0 °F61 %30.02 in10.0 miWNW (300°)6.9 mphClear
10:52 PM30.0 °F18.0 °F61 %30.04 in10.0 miWest (280°)5.8 mphClear
11:52 PM28.9 °F18.0 °F64 %30.04 in10.0 miNW (310°)3.5 mphClear
Hourly data recorded from KORE, located miles away from Greenfield, Massachusetts







STORIES FROM OUR PARTNERS